Regional Weather Roundup
Issued by NWS Sioux Falls, SD

Home | Current Version | Previous Version | Text Only | Print | Product List | Glossary On
Versions: 1 2 3 4 5 6 7 8 9 10 11 12 13 14 15 16 17 18 19 20 21 22 23 24 25 26 27 28 29 30 31 32 33 34 35 36 37 38 39 40 41 42 43 44 45 46 47 48 49 50
000
ASUS43 KFSD 170310
RWRFSD

WEATHER ROUNDUP FOR SE SOUTH DAKOTA/SW MINNESOTA/NW IOWA
NATIONAL WEATHER SERVICE SIOUX FALLS SD
1000 PM CDT TUE SEP 16 2014

NOTE: "FAIR" INDICATES FEW OR NO CLOUDS BELOW 12,000 FEET WITH NO
SIGNIFICANT WEATHER AND OR OBSTRUCTIONS TO VISIBILITY.


SDZ038>040-050-052>070-170400-
SOUTHEAST SOUTH DAKOTA

CITY           SKY/WX    TMP DP  RH WIND       PRES   REMARKS
CHAMBERLAIN    PTCLDY    59  56  88 SE5       29.90S
HURON          CLEAR     62  54  74 S9        29.91S
MADISON        CLOUDY    59  54  82 S7        29.97S
MITCHELL       CLEAR     60  54  80 SE9       29.93S
SIOUX FALLS    CLOUDY    62  49  62 S10       29.97S
WINNER         FAIR      62  55  77 S5        29.92R
YANKTON        CLEAR     59  50  72 SE9       29.96F
$$

MNZ071-072-080-081-089-090-097-098-170400-
SOUTHWEST MINNESOTA

CITY           SKY/WX    TMP DP  RH WIND       PRES   REMARKS
FAIRMONT       CLOUDY    54  45  71 S6        30.02S
JACKSON        PTCLDY    55  46  71 S6        30.02S
LUVERNE        CLOUDY    59  50  72 S3        30.00S
MARSHALL       CLOUDY    63  46  55 S13       29.97F
MONTEVIDEO     CLOUDY    61  50  67 S5        29.98S
PIPESTONE      CLOUDY    57  48  72 S8        29.99S
REDWOOD FALLS  CLOUDY    61  50  67 S8        29.99F
TRACY          CLOUDY    60  52  75 CALM      30.00F
WINDOM         CLOUDY    59  50  72 CALM      30.02R
WORTHINGTON    CLOUDY    57  48  72 S9        30.02R
$$

IAZ001>003-012>014-020>022-031-032-NEZ013-014-SDZ071-170400-
NORTHWEST IOWA

CITY           SKY/WX    TMP DP  RH WIND       PRES   REMARKS
CHEROKEE       CLEAR     50  49  95 CALM      30.02S
DENISON        CLEAR     54  50  87 SE6       30.02S
ESTHERVILLE    PTCLDY    53  48  83 S6        30.02S
LE MARS          N/A     59  50  72 SE8       30.00F
ORANGE CITY    CLOUDY    61  48  63 S8        30.00S
SHELDON        MOCLDY    54  50  87 S5        30.00S
SIOUX CITY     CLOUDY    58  52  80 SE6       30.01S
SPENCER        PTCLDY    52  47  83 S7        30.01F
STORM LAKE     CLEAR     52  52 100 S8        30.03S
$$

ABBREVIATIONS USED IN REMARKS
   TC - TEMPERATURE IN CELSIUS
  WCI - WIND CHILL INDEX
   HX - HEAT INDEX
  VSB - VISIBILITY




USA.gov is the U.S. government's official web portal to all federal, state and local government web resources and services.